Lapse_Rate
5.4 5.4 5.5 5.6 5.7 5.7 5.7 5.7 5.7 5.8 5.8 5.7 5.7 5.5 5.3 5.2 5.1 5.3 5.2 5.2 5.3 5.3 5.4 5.6 5.7 6.1 6.1 6.0 5.6 5.7 5.9 5.8 5.8 5.9 5.7 6.0 5.3 5.4 5.1 5.1 4.6 5.1 4.7 5.6 5.6
5.4 5.6 5.7 5.7 5.8 5.9 5.8 5.8 5.8 5.9 5.9 5.9 5.7 5.7 5.4 5.3 5.2 5.2 5.2 5.3 5.3 5.3 5.4 5.5 5.7 5.9 6.1 5.9 5.5 5.7 6.0 5.5 6.0 6.0 5.5 5.9 5.4 5.2 5.0 4.6 4.8 5.1 5.3 5.4 5.6
5.5 5.6 5.8 5.8 5.8 6.0 6.0 5.9 5.9 6.0 6.0 6.0 5.9 5.8 5.6 5.5 5.3 5.4 5.2 5.2 5.5 5.4 5.5 5.6 5.5 5.7 5.9 5.6 5.6 5.7 5.4 5.6 6.1 6.0 5.8 5.3 5.3 5.2 5.3 5.2 4.7 5.2 5.4 5.4 5.4
5.5 5.7 5.7 5.9 5.9 6.0 6.0 6.0 5.9 5.9 6.0 6.0 6.0 5.8 5.6 5.4 5.4 5.5 5.3 5.4 5.0 5.5 5.5 5.5 6.0 5.5 5.6 6.0 5.9 5.8 5.6 5.6 5.7 5.7 5.1 5.4 5.8 5.2 5.1 5.5 5.4 5.3 5.0 5.3 5.2
5.8 5.8 5.8 5.9 6.0 6.0 6.0 6.0 6.0 6.0 6.0 6.1 6.0 5.8 5.6 5.3 5.4 5.5 5.5 5.5 5.4 5.2 6.1 5.8 5.9 5.7 5.9 5.8 5.8 5.6 5.2 5.3 5.5 6.0 5.7 5.8 6.0 5.6 5.5 5.7 5.6 5.5 5.1 5.1 5.2
6.1 6.0 5.9 6.0 6.0 6.0 6.1 6.2 6.1 6.1 6.2 6.2 6.0 5.8 5.5 5.0 5.3 5.4 5.5 5.6 5.5 5.6 5.6 5.8 5.5 6.1 6.0 5.7 5.6 5.4 5.2 5.6 5.6 6.1 5.8 5.9 5.9 5.9 5.8 5.8 5.7 5.5 5.4 5.1 5.2
6.3 6.3 6.3 6.2 6.1 6.2 6.3 6.2 6.3 6.3 6.3 6.3 6.1 5.9 5.4 5.3 5.2 5.2 5.3 5.4 5.5 5.7 5.6 5.7 5.7 5.8 6.1 6.0 6.0 5.6 5.6 6.0 6.0 6.1 5.8 5.9 5.5 5.5 5.8 5.8 5.7 5.7 5.7 5.4 5.2
6.5 6.5 6.5 6.5 6.4 6.4 6.4 6.3 6.3 6.4 6.4 6.4 6.2 5.9 5.4 5.3 5.1 5.0 5.2 5.1 5.3 5.5 5.8 5.7 5.8 5.6 5.9 6.2 6.3 5.8 6.3 6.5 5.7 5.9 6.0 5.6 5.9 5.8 5.8 5.9 5.8 5.7 5.6 5.7 5.5
6.6 6.6 6.6 6.7 6.6 6.6 6.6 6.6 6.6 6.5 6.4 6.4 6.2 5.9 5.3 5.5 5.1 5.0 4.9 5.0 5.2 5.4 5.5 6.1 5.8 5.7 6.1 6.4 6.9 7.0 6.6 6.3 6.2 6.0 6.5 5.9 5.8 5.9 5.7 5.7 5.4 5.7 5.7 5.8 5.6
6.7 6.7 6.6 6.7 6.8 6.7 6.7 6.6 6.6 6.7 6.5 6.3 6.1 5.9 5.7 5.4 5.5 5.4 5.2 5.1 5.2 5.6 5.5 5.6 5.7 6.0 6.0 6.5 7.4 6.9 7.2 6.5 6.8 6.4 7.0 6.4 6.5 6.0 6.2 5.7 5.3 5.1 5.5 5.9 5.8
6.8 6.7 6.7 6.7 6.7 6.8 6.8 6.5 6.4 6.3 6.4 6.0 6.0 6.0 5.9 5.8 5.7 5.7 5.7 5.7 5.6 5.6 5.9 5.6 6.1 6.3 6.0 5.7 6.2 6.4 6.5 6.7 6.6 6.7 6.9 7.1 7.0 6.9 6.9 6.3 5.5 5.5 5.4 5.8 6.2
7.0 6.9 6.8 6.8 6.7 6.7 6.7 6.6 6.4 6.3 5.9 6.1 6.1 6.1 6.0 6.1 5.6 5.7 5.9 5.8 6.0 6.2 6.1 6.2 6.5 5.8 5.5 5.6 6.0 6.3 6.6 6.8 6.8 6.7 6.6 7.3 7.6 7.6 7.1 6.9 6.6 5.9 5.6 5.8 5.9
7.0 7.0 6.9 7.0 7.0 6.9 6.8 6.6 6.4 6.3 6.3 5.9 6.0 5.8 5.8 5.9 5.8 5.7 5.8 5.9 6.1 6.2 6.6 7.0 6.4 5.6 5.8 6.0 6.1 6.5 6.5 6.8 6.6 6.7 7.3 7.4 8.1 7.7 7.6 7.4 7.4 6.8 6.1 5.9 5.9
7.0 7.0 7.0 6.9 6.9 6.9 6.8 6.6 6.4 6.5 6.8 6.2 6.2 6.0 6.1 6.1 6.0 6.0 6.0 5.9 6.0 6.3 6.5 6.6 5.9 6.0 6.3 6.4 6.2 7.0 5.9 6.1 6.4 7.0 8.0 7.5 9.1 8.2 8.0 7.4 7.9 7.9 7.7 6.7 6.2
7.0 7.0 7.0 7.0 6.9 6.9 6.8 6.6 6.6 6.8 8.0 6.3 6.2 6.2 6.4 6.4 6.2 6.2 6.2 6.2 6.3 6.1 6.4 5.9 6.1 6.4 6.5 6.2 6.2 6.8 5.9 6.1 6.4 6.6 7.1 7.4 7.7 9.1 7.9 8.0 8.0 7.6 7.3 6.9 6.5
6.7 6.9 7.0 6.9 7.0 7.0 6.9 6.7 6.8 7.1 7.7 6.5 6.3 6.4 6.5 6.5 6.4 6.4 6.3 6.3 6.2 6.3 6.4 6.0 6.0 5.9 5.9 5.8 5.9 5.8 6.3 6.5 6.7 7.0 7.3 7.5 7.9 8.8 9.4 8.4 8.2 7.5 7.4 7.2 6.8
6.5 6.7 6.8 6.8 6.9 7.0 7.1 6.8 6.9 7.8 6.9 6.7 6.6 6.7 6.8 6.6 6.4 6.4 6.4 6.4 6.7 6.8 6.7 6.3 6.0 5.9 6.0 6.1 6.0 6.2 6.9 7.7 7.9 8.1 8.3 8.5 8.3 8.2 8.8 7.4 7.0 7.4 7.1 7.4 7.3
6.3 6.5 6.6 6.8 6.8 6.8 6.8 6.5 7.5 7.1 7.1 6.5 6.6 6.6 6.7 6.5 6.3 6.3 6.4 6.6 6.4 6.5 6.9 7.1 6.9 6.1 5.9 5.9 6.1 6.3 6.8 7.9 8.1 9.0 9.8 6.6 7.6 8.0 7.6 6.2 7.1 7.3 7.5 7.6 8.0
6.5 6.5 6.6 6.7 6.8 6.8 6.7 7.0 7.5 7.0 6.7 6.6 6.6 6.9 6.5 6.4 6.6 6.4 6.4 6.4 6.0 6.4 6.9 7.1 7.0 6.2 6.2 6.2 6.1 6.4 6.8 6.6 7.1 7.6 7.5 7.9 7.7 7.2 7.0 6.4 6.1 6.6 7.3 7.7 7.7
6.5 6.6 6.6 6.6 6.7 6.8 6.5 7.3 6.8 6.7 6.7 6.7 7.1 6.9 6.9 6.7 6.7 6.7 6.4 5.9 5.9 6.2 6.3 6.3 7.0 6.3 6.1 6.1 6.1 6.4 6.3 7.2 7.3 8.0 8.1 8.6 7.7 7.8 7.3 5.8 6.0 6.1 6.6 7.7 8.0
6.5 6.3 6.6 6.6 6.7 6.6 6.9 7.1 6.5 6.8 6.7 7.0 6.9 6.8 6.9 6.6 6.8 6.8 6.4 5.9 6.1 5.9 6.0 6.3 6.5 6.7 6.3 6.5 7.0 6.8 6.7 6.6 7.2 7.5 8.4 8.6 9.0 6.9 6.4 6.1 6.1 6.4 6.1 7.1 7.7
6.5 6.3 6.5 6.7 6.4 6.4 6.8 6.6 6.6 6.6 6.8 6.7 6.7 6.8 6.9 6.6 6.7 6.7 6.5 6.2 6.1 5.8 6.2 5.9 6.6 7.0 7.2 6.3 6.2 6.2 6.8 6.7 7.6 8.0 7.2 7.3 7.4 7.1 6.2 6.2 6.0 6.6 6.3 5.8 6.8
6.6 6.3 6.4 6.6 6.9 6.9 6.6 6.6 6.6 6.7 6.8 6.8 6.7 6.7 6.6 6.6 6.6 6.6 6.4 6.2 6.1 5.8 5.9 5.8 6.5 7.2 7.3 6.6 5.9 6.4 6.5 6.7 6.6 6.8 6.9 7.5 8.0 6.6 6.5 6.5 5.6 5.8 6.6 6.5 6.4
6.6 6.5 6.5 6.6 6.7 7.0 6.9 6.9 6.7 6.8 6.7 6.8 6.9 6.8 6.7 6.7 6.7 6.5 6.4 6.1 6.0 5.7 5.8 5.6 6.3 6.5 7.5 7.7 6.7 6.6 6.4 6.3 6.4 6.8 7.3 7.1 7.4 7.3 6.8 6.2 5.6 5.3 5.5 6.3 6.5
6.6 6.9 6.7 6.5 6.6 6.8 7.0 7.0 7.1 6.9 6.8 6.9 7.0 7.2 7.2 7.1 6.9 6.9 6.6 6.0 5.9 5.8 5.7 5.8 6.0 6.2 6.4 6.4 6.5 6.5 6.4 6.5 6.4 6.5 6.7 7.0 6.9 6.9 6.5 5.8 5.2 5.0 4.8 6.0 6.4
6.7 6.8 7.0 7.0 6.8 6.9 7.0 7.0 7.2 6.9 7.1 7.1 7.3 7.2 7.1 7.2 7.2 7.0 6.7 6.4 6.5 5.6 5.7 5.8 6.0 5.8 6.0 6.4 6.4 6.3 6.4 6.4 6.5 6.6 6.5 6.5 6.2 6.8 6.5 5.8 5.3 4.7 4.5 4.5 5.9
6.5 6.6 7.2 6.9 7.3 7.0 6.9 6.8 7.0 7.1 7.2 7.2 7.2 7.1 7.0 6.8 6.6 6.6 6.4 6.3 6.1 6.0 6.0 6.0 6.1 6.1 6.9 6.5 6.3 6.4 6.8 6.9 7.2 7.3 7.2 6.9 6.8 6.4 5.7 5.2 4.9 4.6 4.3 4.3 4.7
Wind_Speed
15 14 14 16 15 15 16 15 16 16 17 16 16 17 17 19 19 5 2 5 5 18 7 8 4 2 3 1 2 3 4 5 6 5 8 7 8 5 5 10 3 3 5 20 19
15 15 15 15 16 15 16 16 16 16 16 16 16 16 16 18 6 3 4 5 19 17 10 7 4 2 1 1 0 3 0 4 3 5 8 6 6 7 8 9 7 6 15 19 19
15 15 15 15 15 14 15 16 16 15 15 15 16 15 15 13 7 5 4 11 16 16 5 5 5 3 3 4 2 3 4 6 5 8 3 5 6 2 10 3 5 12 19 19 19
16 16 16 16 16 15 14 15 15 15 15 14 15 16 17 5 3 5 1 12 12 5 3 3 3 4 2 3 3 2 4 4 5 4 4 4 3 4 3 7 8 16 17 18 18
18 17 17 17 17 16 15 15 15 14 14 13 14 14 6 6 5 4 5 11 13 6 8 1 3 5 9 4 1 4 6 6 5 7 5 5 3 2 6 7 15 17 17 16 14
19 19 18 18 18 17 15 15 15 14 13 13 12 15 5 6 3 4 9 13 9 8 4 4 4 6 4 6 5 7 7 8 4 5 4 3 5 3 9 12 17 18 17 15 14
21 20 20 19 19 18 17 17 15 14 12 10 9 5 4 8 3 7 10 8 7 6 5 3 6 8 2 0 5 2 7 8 3 4 2 8 7 6 12 15 16 16 15 14 13
21 21 21 20 20 19 17 16 13 10 8 8 6 5 6 3 3 6 6 6 4 4 7 5 8 5 5 4 4 2 5 9 6 6 3 7 9 4 11 15 16 16 15 14 14
22 22 21 20 21 21 17 12 6 3 2 4 5 6 9 4 5 4 4 2 6 4 3 6 5 2 3 8 5 2 6 8 7 6 1 3 3 6 11 12 14 15 15 14 14
24 23 22 21 20 21 17 6 3 4 5 5 4 5 8 6 4 3 2 2 2 5 5 5 5 6 3 8 1 5 3 5 5 5 3 5 6 10 10 13 12 15 15 15 15
24 24 23 23 21 18 9 4 5 5 4 6 6 3 7 3 4 4 1 4 4 7 11 5 9 9 4 2 2 3 6 2 3 4 6 3 4 3 11 12 13 15 16 16 16
24 25 24 23 23 16 6 1 4 5 7 3 2 3 3 1 6 5 3 6 8 10 6 8 11 5 2 1 4 6 6 6 5 1 6 7 7 3 10 13 14 15 16 17 17
25 24 24 24 23 7 5 5 4 4 4 6 4 5 4 3 4 6 4 3 6 8 12 10 8 2 5 4 8 8 11 6 8 9 11 10 12 5 5 9 12 14 15 17 17
25 24 23 26 4 1 1 4 2 5 6 8 5 4 1 2 5 4 4 1 3 5 5 2 2 3 5 6 7 11 5 9 10 9 8 2 6 5 6 9 13 15 16 17 18
25 22 20 12 6 3 4 5 3 4 5 6 5 2 1 1 6 6 2 3 5 6 6 5 3 4 5 3 4 4 7 8 10 12 14 14 8 7 3 7 10 12 14 15 16
23 21 19 4 4 2 4 1 5 7 4 7 3 5 7 7 5 3 3 7 2 6 8 9 2 5 4 2 3 7 9 10 11 11 14 16 16 11 8 4 5 10 3 8 13
24 20 7 4 2 2 5 5 7 7 5 8 9 5 10 8 8 3 5 4 0 6 6 6 2 3 5 7 6 8 10 8 8 9 11 6 10 9 1 12 9 9 9 11 10
26 16 7 4 3 5 5 8 9 2 9 7 8 7 5 6 5 4 4 7 6 5 2 6 7 2 4 5 7 7 9 7 7 9 3 5 6 6 7 12 8 10 10 11 11
25 4 4 3 4 5 6 11 5 7 10 14 10 10 9 6 3 4 1 2 5 7 4 3 3 2 1 5 5 5 7 8 9 11 8 9 7 4 9 8 8 9 10 13 14
3 4 4 2 3 6 7 6 4 2 8 15 9 5 8 7 8 6 5 3 4 4 5 3 5 3 1 4 6 8 6 6 6 5 8 5 4 9 9 5 8 11 13 14 15
5 5 4 5 4 6 8 4 6 8 5 7 5 7 5 7 3 4 4 5 2 3 4 3 4 8 4 6 5 5 9 8 8 6 8 8 3 9 4 6 12 14 17 17 18
4 4 3 4 6 3 6 6 1 10 4 5 4 5 6 6 4 3 6 3 3 2 1 3 4 7 6 3 6 11 8 10 9 8 8 9 12 5 4 8 15 19 19 18 18
2 2 2 5 5 7 5 8 4 9 8 8 5 3 5 5 3 4 7 6 4 2 0 1 3 7 8 7 6 10 8 7 8 8 13 12 6 5 3 15 15 19 21 20 19
3 4 3 3 3 4 10 10 9 2 6 4 8 7 7 6 1 6 8 7 3 1 3 1 10 11 12 12 6 11 11 11 12 10 13 18 19 19 17 17 19 18 17 19 19
3 3 3 5 4 3 4 7 11 8 3 6 5 7 6 5 6 6 5 7 6 8 5 5 10 11 13 14 15 15 16 17 18 17 20 21 24 21 19 21 18 16 16 19 18
4 2 2 2 1 6 5 5 10 6 9 10 7 8 6 4 3 5 4 4 4 6 7 4 8 8 13 15 15 19 19 19 21 22 24 23 26 21 18 15 14 13 17 19 20
3 0 4 1 3 6 3 5 5 6 3 2 5 7 8 5 2 3 3 2 2 6 7 8 7 6 12 2 9 12 18 19 20 19 20 20 19 18 18 19 19 17 16 20 19
Wind_Direction
337 333 329 326 325 324 325 325 325 329 328 330 329 328 329 328 308 219 77 39 156 167 219 155 155 83 242 302 293 272 213 117 114 141 129 142 127 79 96 135 95 100 143 135 146
334 331 328 325 322 322 322 320 320 324 324 326 324 325 326 330 278 119 13 159 154 176 168 173 197 195 15 326 263 322 33 65 73 101 138 128 154 114 134 139 126 110 111 137 150
338 332 329 326 322 321 318 316 318 320 320 322 319 322 321 317 246 55 31 176 172 188 150 188 234 309 104 289 32 55 37 86 110 105 128 145 138 71 129 165 141 151 146 152 158
340 337 332 327 323 321 317 315 315 315 315 316 314 317 318 247 176 44 332 170 171 255 184 246 250 287 103 53 21 125 60 146 130 136 112 133 137 142 173 40 118 142 150 156 167
342 339 334 329 324 321 318 315 310 307 308 308 310 316 286 200 74 72 134 168 187 199 228 235 311 324 29 72 251 33 85 92 134 128 97 127 194 77 147 105 130 143 155 163 170
342 339 336 331 325 321 318 311 304 300 299 299 305 309 249 140 68 135 167 178 223 229 252 236 326 357 354 45 47 59 62 115 151 115 62 146 198 210 143 143 144 156 168 171 172
340 338 337 333 325 320 318 309 302 294 288 284 291 289 239 81 98 135 161 188 213 241 280 309 302 292 301 67 97 79 100 126 190 184 218 260 180 200 147 161 161 169 175 175 178
337 336 337 333 326 321 319 309 299 290 276 265 266 256 90 103 124 179 182 172 196 233 269 287 281 294 345 119 223 198 255 86 114 184 209 253 91 134 161 174 173 176 178 180 181
337 336 337 333 326 322 319 308 290 284 199 200 233 265 123 133 169 115 211 199 174 199 235 279 248 326 202 259 192 195 102 81 119 179 265 283 106 132 171 188 182 185 184 187 186
336 336 337 333 329 325 320 261 193 184 203 230 261 220 162 121 102 107 140 254 224 178 178 215 209 251 182 292 338 13 60 89 13 77 256 242 261 153 193 193 197 193 191 192 192
335 336 336 331 329 327 302 212 208 171 195 10 58 48 102 100 197 157 154 185 207 224 226 195 239 209 353 95 350 314 306 9 336 92 312 353 301 247 185 205 200 201 195 200 198
335 335 335 330 325 316 271 8 27 3 125 68 37 107 68 330 164 128 249 231 209 208 210 214 241 83 255 271 278 289 289 289 276 273 305 306 314 214 186 202 209 204 204 203 200
336 335 333 328 319 285 32 42 329 213 172 109 85 63 60 259 67 83 272 177 194 185 205 244 79 166 232 226 262 240 284 297 307 313 282 292 271 168 169 193 207 215 212 209 207
337 336 333 327 293 62 141 356 286 209 172 139 146 77 219 207 94 28 10 313 176 164 201 84 82 242 245 258 287 275 54 295 284 289 278 312 281 171 178 187 208 214 213 214 210
335 333 330 331 327 231 49 337 166 230 201 129 102 15 62 325 120 64 7 213 111 135 238 104 155 194 240 0 286 309 323 286 284 270 270 249 245 248 223 235 213 216 216 219 216
332 328 324 207 229 360 319 250 226 233 149 143 152 151 146 140 89 126 116 77 42 99 68 109 118 33 14 218 301 310 274 250 249 250 251 247 259 256 216 232 90 43 174 225 226
328 321 283 292 120 342 299 214 208 250 145 152 151 172 122 127 85 115 115 104 354 190 150 161 121 111 352 246 195 275 259 256 231 219 250 259 227 244 21 81 60 52 43 25 343
324 314 190 276 303 307 237 209 227 56 169 128 144 153 133 143 102 112 155 126 67 305 178 227 175 235 15 359 329 308 305 296 276 274 262 95 240 222 113 96 63 56 38 24 12
314 177 189 140 240 252 232 209 217 175 153 157 164 171 139 138 172 148 90 83 40 10 316 244 182 148 47 319 282 120 244 12 288 247 262 256 197 203 174 101 31 29 20 12 1
289 217 121 140 178 237 226 238 132 122 141 169 180 249 170 159 185 210 188 106 115 34 328 72 270 168 101 258 202 283 7 229 206 262 255 225 239 258 147 24 2 4 6 359 353
240 209 80 177 240 222 218 153 154 144 164 197 164 159 140 150 204 168 142 128 184 105 327 309 265 132 243 207 310 209 225 235 304 280 285 272 245 80 88 359 351 345 351 348 346
285 200 105 216 203 235 202 164 117 146 155 123 111 108 160 153 156 151 167 63 122 297 248 54 294 273 289 56 272 259 282 264 251 215 241 290 277 136 86 350 348 335 334 340 343
300 71 121 238 214 190 137 141 164 167 154 157 128 126 144 139 140 141 136 109 148 232 179 64 238 261 200 179 188 230 213 259 273 285 256 268 244 145 304 326 338 333 329 335 338
273 174 134 214 321 239 174 167 146 76 114 101 119 139 151 153 145 159 158 162 152 218 25 257 266 257 283 336 328 215 232 238 264 269 271 252 270 283 304 323 323 318 322 322 329
331 59 5 180 165 175 215 185 168 158 135 170 168 193 184 170 174 179 166 161 191 140 216 265 266 274 269 278 276 264 263 265 256 259 262 279 290 296 309 308 315 313 314 317 325
341 331 119 53 159 197 165 163 180 140 173 178 221 185 180 196 241 178 205 231 263 164 229 235 281 284 275 264 264 267 264 259 256 260 266 275 277 287 296 313 302 306 313 316 317
2 209 296 149 179 226 119 149 156 163 136 349 206 173 191 104 90 63 66 46 17 276 256 255 278 253 276 11 287 268 257 254 260 261 267 273 293 315 305 305 307 305 307 306 314